Location: Grand Mazuras
(45.9128°N, 1.7636°E)
Time: 17:12:58
(UTC+00:00)

Cosmos 1869 - Pass Details

Date: 18 April 2021
Orbit: 518 x 563 km, 82.5° (Epoch: 11 May)

Event Time Altitude Azimuth Distance (km) Brightness Sun altitude
Exits shadow 21:18:35 35° 43° (NE) 891 4.3 -23.3°
Drops below altitude 10° 21:21:10 10° 19° (NNE) 1,811 6.3 -23.6°
Sets 21:23:22 0° 14° (NNE) 2,700 7.3 -23.9°
